IRM081 UTAA-OIIE

Flight info

Callsign IRM081
Flight time 1h 11m
Altitude 36000
Route RIK29D RIKOP L720 BRD B451 RAPKI A647 MUXOR
Aircraft A346/H-SDE2E3FGHIJ3J4J5M1RWXY/LB1D1

Departure

Time 2026-05-08 22:59
Airport Ashgabat International Airport (UTAA)

Arrival

Time 2026-05-09 00:11
Airport Imam Khomeini International Airport (OIIE)
Time Latitude Longitude Altitude Speed Heading
2026-05-08 22:18 37.98495 58.36669 686 ft 0 kts 167°
2026-05-08 22:48 37.98501 58.36667 686 ft 4 kts 167°
2026-05-08 22:48 37.98522 58.36661 682 ft 4 kts 163°
2026-05-08 22:48 37.98543 58.36648 681 ft 4 kts 140°
2026-05-08 22:48 37.98560 58.36624 678 ft 4 kts 122°
2026-05-08 22:49 37.98572 58.36599 678 ft 4 kts 120°
2026-05-08 22:49 37.98591 58.36578 678 ft 4 kts 196°
2026-05-08 22:49 37.98609 58.36588 678 ft 4 kts 206°
2026-05-08 22:50 37.98633 58.36599 686 ft 4 kts 188°
2026-05-08 22:50 37.98656 58.36598 678 ft 4 kts 162°
2026-05-08 22:50 37.98675 58.36584 680 ft 4 kts 135°
2026-05-08 22:50 37.98691 58.36558 678 ft 4 kts 120°
2026-05-08 22:51 37.98700 58.36538 678 ft 0 kts 120°
2026-05-08 22:54 37.98697 58.36545 679 ft 3 kts 120°
2026-05-08 22:54 37.98680 58.36581 680 ft 7 kts 121°
2026-05-08 22:54 37.98650 58.36646 684 ft 11 kts 120°
2026-05-08 22:54 37.98608 58.36740 680 ft 14 kts 119°
2026-05-08 22:55 37.98556 58.36859 685 ft 17 kts 119°
2026-05-08 22:55 37.98491 58.37004 682 ft 20 kts 120°
2026-05-08 22:55 37.98418 58.37167 682 ft 21 kts 119°
2026-05-08 22:55 37.98369 58.37308 681 ft 10 kts 94°
2026-05-08 22:56 37.98380 58.37391 679 ft 10 kts 74°
2026-05-08 22:56 37.98398 58.37486 680 ft 12 kts 88°
2026-05-08 22:56 37.98364 58.37598 683 ft 16 kts 121°
2026-05-08 22:56 37.98305 58.37727 680 ft 16 kts 119°
2026-05-08 22:57 37.98259 58.37830 684 ft 12 kts 119°
2026-05-08 22:57 37.98236 58.37906 680 ft 9 kts 97°
2026-05-08 22:57 37.98260 58.37995 683 ft 13 kts 45°
2026-05-08 22:57 37.98314 58.38044 682 ft 4 kts 31°
2026-05-08 22:58 37.98345 58.38057 680 ft 5 kts 343°
2026-05-08 22:58 37.98371 58.38022 681 ft 2 kts 301°
2026-05-08 22:58 37.98373 58.38019 682 ft 0 kts 300°
2026-05-08 22:58 37.98427 58.37902 681 ft 47 kts 300°
2026-05-08 22:59 37.98706 58.37275 682 ft 114 kts 299°
2026-05-08 22:59 37.99190 58.36179 684 ft 168 kts 298°
2026-05-08 22:59 37.99802 58.34793 1141 ft 184 kts 299°
2026-05-08 22:59 38.00428 58.33380 1952 ft 182 kts 299°
2026-05-08 23:00 38.01048 58.31986 2768 ft 180 kts 300°
2026-05-08 23:00 38.01664 58.30602 3494 ft 181 kts 301°
2026-05-08 23:00 38.02289 58.29197 4127 ft 184 kts 301°
2026-05-08 23:00 38.02942 58.27779 4802 ft 187 kts 309°
2026-05-08 23:01 38.03961 58.26791 5447 ft 188 kts 340°
2026-05-08 23:01 38.05264 58.26653 6075 ft 193 kts 13°
2026-05-08 23:01 38.06447 58.27442 6691 ft 196 kts 46°
2026-05-08 23:01 38.07069 58.28968 7267 ft 200 kts 84°
2026-05-08 23:02 38.06807 58.30714 7737 ft 210 kts 118°
2026-05-08 23:02 38.06065 58.32394 8221 ft 226 kts 122°
2026-05-08 23:02 38.05251 58.34168 8666 ft 244 kts 123°
2026-05-08 23:02 38.04356 58.36118 9110 ft 266 kts 123°
2026-05-08 23:03 38.03401 58.38224 9696 ft 283 kts 123°
2026-05-08 23:03 38.02409 58.40436 10425 ft 293 kts 124°
2026-05-08 23:03 38.01372 58.42747 10977 ft 309 kts 123°
2026-05-08 23:03 38.00273 58.45194 11454 ft 328 kts 123°
2026-05-08 23:04 37.99112 58.47786 11934 ft 347 kts 123°
2026-05-08 23:04 37.97696 58.50341 12333 ft 362 kts 137°
2026-05-08 23:04 37.95643 58.52281 12728 ft 375 kts 155°
2026-05-08 23:04 37.93150 58.53296 13376 ft 380 kts 174°
2026-05-08 23:05 37.90502 58.53247 14193 ft 381 kts 191°
2026-05-08 23:05 37.88010 58.52138 14980 ft 384 kts 210°
2026-05-08 23:05 37.85904 58.50046 15768 ft 387 kts 226°
2026-05-08 23:05 37.84081 58.47516 16633 ft 391 kts 228°
2026-05-08 23:06 37.82260 58.44981 17443 ft 395 kts 228°
2026-05-08 23:06 37.80394 58.42393 18269 ft 399 kts 228°
2026-05-08 23:06 37.78514 58.39787 18982 ft 403 kts 228°
2026-05-08 23:06 37.76615 58.37158 19734 ft 405 kts 227°
2026-05-08 23:07 37.74711 58.34525 20580 ft 405 kts 227°
2026-05-08 23:07 37.72808 58.31896 21401 ft 406 kts 226°
2026-05-08 23:07 37.70892 58.29256 22207 ft 408 kts 226°
2026-05-08 23:07 37.69116 58.26441 22966 ft 412 kts 234°
2026-05-08 23:08 37.67701 58.23278 23752 ft 415 kts 242°
2026-05-08 23:08 37.66667 58.19853 24343 ft 421 kts 249°
2026-05-08 23:08 37.65922 58.16247 25000 ft 424 kts 252°
2026-05-08 23:08 37.65211 58.12610 25537 ft 428 kts 252°
2026-05-08 23:09 37.64503 58.08944 26111 ft 431 kts 252°
2026-05-08 23:09 37.63793 58.05262 26702 ft 432 kts 252°
2026-05-08 23:09 37.63081 58.01566 27290 ft 434 kts 252°
2026-05-08 23:09 37.62367 57.97862 27853 ft 436 kts 252°
2026-05-08 23:10 37.61646 57.94132 28429 ft 438 kts 252°
2026-05-08 23:10 37.60923 57.90391 29022 ft 439 kts 252°
2026-05-08 23:10 37.60210 57.86698 29815 ft 435 kts 252°
2026-05-08 23:10 37.59493 57.83002 30677 ft 429 kts 252°
2026-05-08 23:11 37.58783 57.79365 31510 ft 423 kts 252°
2026-05-08 23:11 37.58081 57.75781 32330 ft 417 kts 253°
2026-05-08 23:11 37.57390 57.72254 33169 ft 411 kts 253°
2026-05-08 23:11 37.56706 57.68772 33979 ft 406 kts 253°
2026-05-08 23:12 37.56033 57.65339 34700 ft 401 kts 253°
2026-05-08 23:12 37.55369 57.61942 35332 ft 397 kts 253°
2026-05-08 23:12 37.54706 57.58566 35849 ft 395 kts 253°
2026-05-08 23:12 37.54041 57.55191 36106 ft 396 kts 253°
2026-05-08 23:13 37.52710 57.48462 36132 ft 395 kts 253°
2026-05-08 23:13 37.51358 57.41757 36151 ft 394 kts 252°
2026-05-08 23:14 37.49668 57.35224 36158 ft 393 kts 248°
2026-05-08 23:14 37.47542 57.28890 36155 ft 392 kts 244°
2026-05-08 23:15 37.44996 57.22809 36154 ft 392 kts 240°
2026-05-08 23:15 37.42253 57.16878 36085 ft 392 kts 240°
2026-05-08 23:16 37.39972 57.11952 36083 ft 392 kts 240°
2026-05-08 23:16 37.36768 57.05071 36089 ft 391 kts 239°
2026-05-08 23:17 37.34457 57.00137 36076 ft 389 kts 239°
2026-05-08 23:17 37.31702 56.94271 36090 ft 390 kts 239°
2026-05-08 23:18 37.28961 56.88442 36073 ft 389 kts 239°
2026-05-08 23:18 37.26203 56.82572 36078 ft 389 kts 239°
2026-05-08 23:19 37.23445 56.76711 36079 ft 389 kts 239°
2026-05-08 23:19 37.20684 56.70862 36073 ft 389 kts 239°
2026-05-08 23:20 37.17925 56.65025 36073 ft 388 kts 239°
2026-05-08 23:20 37.15163 56.59194 36078 ft 389 kts 239°
2026-05-08 23:21 37.12398 56.53365 36084 ft 388 kts 239°
2026-05-08 23:21 37.09630 56.47545 36082 ft 388 kts 239°
2026-05-08 23:22 37.06863 56.41734 36081 ft 388 kts 238°
2026-05-08 23:22 37.04091 56.35925 36048 ft 388 kts 238°
2026-05-08 23:23 37.01321 56.30130 36062 ft 388 kts 238°
2026-05-08 23:23 36.98567 56.24376 36074 ft 388 kts 238°
2026-05-08 23:24 36.95786 56.18577 36064 ft 388 kts 238°
2026-05-08 23:24 36.93003 56.12788 36072 ft 388 kts 238°
2026-05-08 23:25 36.90219 56.07002 36069 ft 388 kts 238°
2026-05-08 23:25 36.87443 56.01248 36067 ft 388 kts 238°
2026-05-08 23:26 36.84654 55.95470 36081 ft 389 kts 238°
2026-05-08 23:26 36.81855 55.89683 36081 ft 389 kts 238°
2026-05-08 23:27 36.79056 55.83905 36061 ft 388 kts 238°
2026-05-08 23:27 36.76254 55.78135 36077 ft 388 kts 238°
2026-05-08 23:28 36.73442 55.72351 36078 ft 389 kts 238°
2026-05-08 23:28 36.70645 55.66614 36074 ft 390 kts 238°
2026-05-08 23:29 36.67826 55.60842 36071 ft 390 kts 238°
2026-05-08 23:29 36.65001 55.55061 36074 ft 390 kts 238°
2026-05-08 23:30 36.62174 55.49270 36074 ft 390 kts 238°
2026-05-08 23:30 36.59349 55.43501 36079 ft 389 kts 238°
2026-05-08 23:31 36.56524 55.37743 36077 ft 390 kts 237°
2026-05-08 23:31 36.53692 55.31983 36057 ft 390 kts 237°
2026-05-08 23:32 36.50856 55.26225 36065 ft 390 kts 237°
2026-05-08 23:32 36.48013 55.20457 36052 ft 391 kts 237°
2026-05-08 23:33 36.45174 55.14718 36044 ft 392 kts 237°
2026-05-08 23:33 36.42315 55.08946 36030 ft 390 kts 237°
2026-05-08 23:34 36.39536 55.03156 36033 ft 390 kts 238°
2026-05-08 23:34 36.36771 54.97354 36031 ft 391 kts 238°
2026-05-08 23:35 36.33985 54.91532 36029 ft 392 kts 238°
2026-05-08 23:35 36.31192 54.85715 36020 ft 392 kts 238°
2026-05-08 23:36 36.28393 54.79897 35986 ft 392 kts 238°
2026-05-08 23:36 36.25610 54.74123 36002 ft 392 kts 238°
2026-05-08 23:37 36.22799 54.68301 35987 ft 392 kts 237°
2026-05-08 23:37 36.19987 54.62491 35988 ft 392 kts 237°
2026-05-08 23:38 36.17175 54.56690 35989 ft 393 kts 237°
2026-05-08 23:38 36.14360 54.50892 35986 ft 393 kts 237°
2026-05-08 23:39 36.11542 54.45093 35992 ft 393 kts 237°
2026-05-08 23:39 36.08723 54.39283 35990 ft 393 kts 237°
2026-05-08 23:40 36.05917 54.33514 36000 ft 393 kts 237°
2026-05-08 23:40 36.03090 54.27714 35992 ft 393 kts 237°
2026-05-08 23:41 36.00260 54.21920 36001 ft 393 kts 237°
2026-05-08 23:41 35.97427 54.16130 36000 ft 394 kts 237°
2026-05-08 23:42 35.94587 54.10336 36011 ft 394 kts 237°
2026-05-08 23:42 35.91748 54.04553 36011 ft 393 kts 237°
2026-05-08 23:43 35.88902 53.98765 36026 ft 394 kts 237°
2026-05-08 23:43 35.86057 53.92990 36025 ft 394 kts 237°
2026-05-08 23:44 35.83207 53.87216 36024 ft 394 kts 237°
2026-05-08 23:44 35.80375 53.81488 36019 ft 394 kts 237°
2026-05-08 23:45 35.77518 53.75716 36022 ft 394 kts 237°
2026-05-08 23:45 35.74657 53.69942 35989 ft 394 kts 237°
2026-05-08 23:46 35.71790 53.64176 35985 ft 394 kts 237°
2026-05-08 23:46 35.68926 53.58426 35643 ft 392 kts 237°
2026-05-08 23:47 35.67503 53.55572 35401 ft 390 kts 237°
2026-05-08 23:47 35.66082 53.52725 35155 ft 388 kts 237°
2026-05-08 23:47 35.64673 53.49902 34912 ft 386 kts 237°
2026-05-08 23:47 35.63306 53.47115 34679 ft 386 kts 238°
2026-05-08 23:48 35.62003 53.44170 34446 ft 387 kts 240°
2026-05-08 23:48 35.60836 53.41212 34165 ft 388 kts 242°
2026-05-08 23:48 35.59765 53.38141 33703 ft 390 kts 244°
2026-05-08 23:48 35.58813 53.35006 33089 ft 393 kts 246°
2026-05-08 23:49 35.57979 53.31795 32426 ft 394 kts 249°
2026-05-08 23:49 35.57270 53.28528 31765 ft 397 kts 251°
2026-05-08 23:49 35.56684 53.25193 31091 ft 400 kts 253°
2026-05-08 23:49 35.56207 53.21801 30399 ft 403 kts 254°
2026-05-08 23:50 35.55740 53.18387 29620 ft 407 kts 254°
2026-05-08 23:50 35.55273 53.14987 28818 ft 409 kts 254°
2026-05-08 23:50 35.54799 53.11488 28099 ft 411 kts 255°
2026-05-08 23:50 35.54342 53.08070 27580 ft 407 kts 255°
2026-05-08 23:51 35.53890 53.04661 27089 ft 402 kts 255°
2026-05-08 23:51 35.53440 53.01275 26602 ft 399 kts 255°
2026-05-08 23:51 35.52996 52.97936 26177 ft 395 kts 255°
2026-05-08 23:51 35.52556 52.94614 25741 ft 392 kts 255°
2026-05-08 23:52 35.52111 52.91315 25315 ft 390 kts 255°
2026-05-08 23:52 35.51668 52.88025 24857 ft 389 kts 256°
2026-05-08 23:52 35.51227 52.84755 24420 ft 388 kts 256°
2026-05-08 23:52 35.50783 52.81476 23971 ft 387 kts 256°
2026-05-08 23:53 35.50342 52.78214 23477 ft 387 kts 256°
2026-05-08 23:53 35.49897 52.74958 22971 ft 386 kts 256°
2026-05-08 23:53 35.49452 52.71712 22462 ft 384 kts 256°
2026-05-08 23:53 35.49012 52.68484 21991 ft 382 kts 257°
2026-05-08 23:54 35.48593 52.65269 21546 ft 380 kts 257°
2026-05-08 23:54 35.48180 52.62073 21103 ft 378 kts 257°
2026-05-08 23:54 35.47770 52.58900 20673 ft 375 kts 257°
2026-05-08 23:55 35.46945 52.52592 19781 ft 372 kts 257°
2026-05-08 23:55 35.46534 52.49461 19346 ft 370 kts 257°
2026-05-08 23:55 35.46124 52.46345 18900 ft 370 kts 258°
2026-05-08 23:55 35.45713 52.43229 18450 ft 368 kts 258°
2026-05-08 23:56 35.45302 52.40125 17985 ft 367 kts 258°
2026-05-08 23:56 35.44893 52.37040 17514 ft 365 kts 258°
2026-05-08 23:56 35.44486 52.33969 17051 ft 363 kts 258°
2026-05-08 23:56 35.44087 52.30960 16602 ft 360 kts 258°
2026-05-08 23:57 35.43685 52.27932 16179 ft 358 kts 258°
2026-05-08 23:57 35.43282 52.24920 15736 ft 356 kts 258°
2026-05-08 23:57 35.42881 52.21925 15323 ft 354 kts 258°
2026-05-08 23:57 35.42480 52.18942 14881 ft 354 kts 258°
2026-05-08 23:58 35.42080 52.15961 14443 ft 353 kts 258°
2026-05-08 23:58 35.41680 52.12994 14010 ft 352 kts 258°
2026-05-08 23:58 35.41280 52.10030 13530 ft 351 kts 258°
2026-05-08 23:58 35.40879 52.07075 13055 ft 350 kts 258°
2026-05-08 23:59 35.40479 52.04135 12615 ft 349 kts 259°
2026-05-08 23:59 35.40080 52.01208 12144 ft 347 kts 259°
2026-05-08 23:59 35.39683 51.98294 11696 ft 346 kts 259°
2026-05-08 23:59 35.39167 51.95413 11218 ft 345 kts 250°
2026-05-09 00:00 35.38292 51.92688 10912 ft 338 kts 253°
2026-05-09 00:00 35.37889 51.89911 10782 ft 324 kts 263°
2026-05-09 00:00 35.37634 51.87217 10643 ft 312 kts 263°
2026-05-09 00:00 35.37356 51.84621 10510 ft 300 kts 262°
2026-05-09 00:01 35.37046 51.82140 10396 ft 289 kts 261°
2026-05-09 00:01 35.36717 51.79750 10284 ft 278 kts 260°
2026-05-09 00:01 35.36383 51.77464 10189 ft 268 kts 259°
2026-05-09 00:01 35.36045 51.75239 10096 ft 263 kts 259°
2026-05-09 00:02 35.35707 51.73041 10000 ft 261 kts 259°
2026-05-09 00:02 35.35366 51.70841 9655 ft 263 kts 259°
2026-05-09 00:02 35.35028 51.68669 9524 ft 253 kts 259°
2026-05-09 00:02 35.34706 51.66600 9443 ft 241 kts 259°
2026-05-09 00:03 35.34427 51.64631 9390 ft 235 kts 264°
2026-05-09 00:03 35.34334 51.62604 9248 ft 235 kts 271°
2026-05-09 00:03 35.34371 51.61273 9050 ft 236 kts 272°
2026-05-09 00:03 35.34455 51.59257 8756 ft 236 kts 273°
2026-05-09 00:04 35.34543 51.57250 8479 ft 236 kts 273°
2026-05-09 00:04 35.34658 51.54596 8118 ft 235 kts 273°
2026-05-09 00:04 35.34741 51.52604 7864 ft 233 kts 273°
2026-05-09 00:04 35.34797 51.51263 7687 ft 232 kts 273°
2026-05-09 00:05 35.34878 51.49292 7432 ft 231 kts 274°
2026-05-09 00:05 35.34957 51.47327 7163 ft 230 kts 272°
2026-05-09 00:05 35.34974 51.45390 6898 ft 229 kts 271°
2026-05-09 00:05 35.34969 51.43442 6633 ft 228 kts 271°
2026-05-09 00:06 35.34965 51.41492 6367 ft 228 kts 272°
2026-05-09 00:06 35.35027 51.39549 6091 ft 227 kts 280°
2026-05-09 00:06 35.35399 51.37662 5927 ft 230 kts 289°
2026-05-09 00:06 35.35917 51.35819 5949 ft 223 kts 290°
2026-05-09 00:07 35.36436 51.34095 5957 ft 208 kts 291°
2026-05-09 00:07 35.36915 51.32496 5878 ft 192 kts 290°
2026-05-09 00:07 35.37343 51.30992 5635 ft 180 kts 289°
2026-05-09 00:07 35.37730 51.29591 5388 ft 168 kts 289°
2026-05-09 00:08 35.38100 51.28245 5201 ft 166 kts 289°
2026-05-09 00:08 35.38467 51.26904 4997 ft 164 kts 290°
2026-05-09 00:08 35.38827 51.25593 4814 ft 164 kts 290°
2026-05-09 00:08 35.39192 51.24270 4605 ft 163 kts 290°
2026-05-09 00:09 35.39554 51.22953 4354 ft 163 kts 291°
2026-05-09 00:09 35.39913 51.21643 4139 ft 161 kts 290°
2026-05-09 00:09 35.40264 51.20332 3969 ft 161 kts 290°
2026-05-09 00:09 35.40626 51.19031 3788 ft 161 kts 291°
2026-05-09 00:10 35.40994 51.17740 3461 ft 158 kts 289°
2026-05-09 00:10 35.41335 51.16516 3307 ft 147 kts 290°
2026-05-09 00:10 35.41639 51.15431 3289 ft 110 kts 289°
2026-05-09 00:10 35.41824 51.14766 3295 ft 59 kts 289°
2026-05-09 00:11 35.41905 51.14476 3294 ft 25 kts 288°
2026-05-09 00:11 35.41927 51.14264 3295 ft 25 kts 266°
2026-05-09 00:11 35.41904 51.14087 3294 ft 13 kts 260°
2026-05-09 00:11 35.41885 51.13974 3296 ft 14 kts 250°
2026-05-09 00:12 35.41810 51.13893 3296 ft 13 kts 187°
2026-05-09 00:12 35.41746 51.13971 3296 ft 16 kts 108°
2026-05-09 00:12 35.41708 51.14116 3294 ft 20 kts 108°
2026-05-09 00:12 35.41661 51.14288 3293 ft 22 kts 109°
2026-05-09 00:13 35.41607 51.14472 3292 ft 24 kts 110°
2026-05-09 00:13 35.41554 51.14665 3285 ft 24 kts 108°
2026-05-09 00:13 35.41498 51.14867 3283 ft 26 kts 109°
2026-05-09 00:13 35.41442 51.15066 3281 ft 18 kts 109°
2026-05-09 00:14 35.41401 51.15210 3280 ft 18 kts 109°
2026-05-09 00:14 35.41374 51.15308 3277 ft 10 kts 109°
2026-05-09 00:14 35.41350 51.15378 3277 ft 7 kts 131°
2026-05-09 00:14 35.41294 51.15394 3276 ft 10 kts 189°
2026-05-09 00:15 35.41225 51.15371 3279 ft 10 kts 196°
2026-05-09 00:15 35.41180 51.15318 3280 ft 10 kts 266°
2026-05-09 00:15 35.41196 51.15244 3278 ft 7 kts 287°
2026-05-09 00:15 35.41178 51.15201 3278 ft 7 kts 211°
2026-05-09 00:16 35.41145 51.15183 3280 ft 2 kts 201°
2026-05-09 00:16 35.41138 51.15180 3284 ft 0 kts 200°
2026-05-09 00:16 35.41136 51.15179 3284 ft 0 kts 200°